GFSGBSN_2pvu_pres_210.txt.gz
Presure
158 155 187 161 157 133 195 193 245 259 229 288 289 258 274 291 339 320 314 312 310 309 301 289 289 311 335 410 385 335 196 173 183 179 164 167 172 177 184 190 187 187 177 114 190 100 188
186 195 138 183 180 195 130 200 187 264 255 275 272 281 282 297 333 335 324 309 309 305 294 298 296 310 345 351 395 350 319 187 178 168 179 167 176 183 184 181 187 189 187 181 186 191 117
135 140 139 131 206 167 191 187 197 226 263 250 256 263 251 279 309 336 336 323 311 311 308 300 283 323 328 364 384 360 317 186 183 184 170 172 169 170 179 184 181 192 192 187 184 184 188
110 137 133 182 155 162 187 125 186 215 214 262 246 258 264 275 281 291 343 328 311 306 310 306 303 305 302 325 363 326 327 305 200 183 174 172 171 173 216 206 185 187 189 195 176 177 184
152 113 155 138 175 155 199 180 193 169 200 215 252 246 255 257 280 283 313 324 336 316 309 306 301 303 293 314 360 372 352 311 233 198 183 176 187 173 173 169 204 186 190 191 196 145 141
136 131 126 125 141 187 194 187 125 178 181 200 207 258 227 247 252 278 285 316 325 321 311 295 301 291 311 319 350 364 322 149 299 214 196 184 170 177 169 166 174 184 180 188 184 188 187
121 113 168 132 123 187 193 179 182 126 172 204 161 210 254 231 223 252 280 282 307 311 317 310 314 307 300 305 345 364 354 366 316 290 211 192 183 163 182 186 167 237 218 183 191 182 180
122 179 192 146 200 117 139 144 206 158 183 166 170 212 219 224 250 262 261 272 282 327 304 313 326 304 311 318 320 364 364 306 272 301 286 124 176 174 168 191 160 206 143 175 183 184 176
135 171 138 128 181 170 139 191 161 196 172 172 167 179 211 227 226 242 256 263 270 289 319 306 315 314 307 313 310 321 366 305 291 250 287 277 84 139 174 174 162 162 212 151 175 140 187
150 134 177 127 179 137 188 193 147 184 185 207 176 160 195 212 208 220 243 257 265 266 276 319 320 290 301 298 288 308 320 367 183 325 295 281 144 149 169 108 144 159 168 178 162 181 162
155 124 121 154 128 133 173 165 175 179 200 195 179 184 162 211 203 202 209 244 251 260 259 287 326 305 307 301 291 284 295 321 384 128 104 278 190 155 165 119 90 164 86 114 123 173 209
142 179 126 161 143 126 127 132 172 174 148 198 183 179 199 166 156 213 196 205 223 245 255 259 281 336 333 325 299 293 294 333 328 298 229 285 210 163 93 155 160 163 137 146 100 173 170
142 128 136 133 140 163 184 183 144 113 180 138 174 191 171 200 162 171 196 202 201 213 242 260 252 271 331 341 340 325 317 316 345 315 236 285 269 162 166 174 175 167 165 163 165 162 171
171 181 161 163 134 175 183 183 142 190 178 162 188 190 195 194 189 163 168 206 198 201 211 224 255 240 254 289 366 335 327 327 253 275 339 150 210 169 168 168 170 88 97 118 115 168 125
176 114 175 174 124 177 166 139 180 171 150 127 176 159 170 180 191 192 189 166 153 205 195 201 212 253 272 242 255 293 295 333 363 340 146 168 160 164 170 170 179 204 178 171 163 165 168
160 175 156 192 146 177 173 172 149 183 171 195 154 190 160 157 183 173 179 170 182 170 207 192 196 208 238 246 237 232 245 272 300 316 186 146 168 173 154 137 167 184 178 178 175 175 174
173 156 160 168 184 140 117 172 154 181 169 168 172 182 156 156 168 171 177 180 186 188 174 208 198 196 204 209 227 242 216 241 217 193 185 182 167 153 181 179 175 174 176 175 171 172 178
185 161 176 149 142 160 181 159 176 170 160 185 186 168 192 141 176 192 158 160 201 173 155 162 169 189 202 193 207 206 219 238 188 180 183 177 174 179 176 177 177 176 177 177 175 171 173
150 167 158 177 179 151 154 158 162 171 167 179 185 176 182 182 149 170 163 177 173 185 192 186 192 162 149 189 186 195 206 201 207 217 228 226 245 199 200 192 195 193 196 192 192 241 254
155 174 172 173 152 172 182 134 192 177 188 167 180 161 187 193 187 154 164 187 182 194 184 201 197 171 177 169 167 187 185 190 192 196 196 203 211 211 212 214 214 214 213 213 205 209 198
158 153 183 174 180 178 184 183 176 156 176 180 171 182 170 171 166 160 167 158 189 145 173 149 184 183 199 177 157 176 163 176 179 201 194 194 199 195 198 198 190 193 197 197 198 184 205
184 179 183 179 169 170 181 180 165 183 157 163 182 194 192 158 172 171 179 162 177 192 187 149 186 142 185 181 174 200 146 196 177 186 186 179 196 192 196 195 186 193 197 195 187 193 198
166 178 166 175 178 164 167 163 181 176 151 174 179 182 171 178 195 168 173 165 171 184 181 160 154 141 171 175 168 191 182 190 184 166 159 170 166 172 182 183 194 186 182 187 193 191 191
178 180 179 166 180 175 160 168 157 177 166 160 185 165 182 166 159 168 178 155 180 181 190 180 184 177 154 181 178 164 173 149 158 189 191 171 191 177 165 167 180 179 183 194 171 192 187
179 195 192 166 188 176 166 167 188 176 186 183 170 201 181 166 179 179 163 170 157 179 179 170 170 192 188 186 177 147 186 178 172 156 185 189 179 187 167 181 167 161 188 180 189 193 178
194 185 182 181 178 181 182 162 185 178 172 172 174 174 167 172 189 179 161 176 178 166 160 179 182 172 171 189 151 183 169 178 165 177 183 193 190 193 200 202 195 181 184 178 188 168 179
182 197 176 181 181 176 163 190 158 171 189 177 156 168 186 170 181 179 170 172 177 170 166 174 182 176 172 182 185 186 152 187 185 190 162 168 178 182 183 175 197 189 196 196 199 169 194
185 189 204 194 187 193 195 189 190 182 183 187 186 173 176 202 161 168 183 176 168 173 169 162 170 173 179 172 171 177 185 181 184 185 175 177 173 172 186 182 191 193 196 188 198 184 195
214 193 205 215 206 204 190 183 172 193 184 188 190 174 190 185 178 187 189 208 195 175 171 189 177 191 171 173 177 175 187 180 193 183 191 188 180 192 177 191 188 187 184 196 191 183 194

GFSGBSN_2pvu_pres_213.txt.gz
Presure
128 136 172 147 126 176 164 208 192 188 206 210 227 269 272 270 321 350 345 326 320 314 316 308 307 295 320 344 378 401 304 212 176 211 200 167 170 221 205 186 186 185 184 185 184 187 192
116 112 129 135 135 116 161 200 162 123 190 166 224 237 245 263 295 349 344 326 317 314 310 311 302 293 303 315 338 390 397 251 202 183 207 209 184 174 220 200 175 181 186 188 186 185 179
135 138 151 141 119 194 156 197 208 185 162 219 158 223 231 253 288 314 346 348 314 320 314 308 299 304 301 337 342 364 411 351 237 190 218 209 195 166 163 216 189 172 180 188 192 187 182
159 151 126 121 168 130 165 122 196 210 215 178 160 209 218 235 260 287 339 346 338 322 323 311 300 298 308 314 309 353 393 377 329 221 182 194 169 187 173 169 209 188 190 190 192 190 187
157 184 158 136 123 118 153 175 199 191 183 177 189 180 223 215 238 278 291 343 334 339 321 315 304 305 307 315 328 349 370 375 337 276 210 211 200 182 184 185 182 210 182 182 187 190 186
113 120 136 129 152 133 134 138 130 186 212 210 188 176 195 222 223 240 277 304 306 323 317 306 305 297 300 317 336 348 359 366 332 321 244 191 214 187 160 166 176 164 217 177 176 178 177
139 185 130 138 111 188 147 140 172 122 174 198 188 212 181 201 214 224 246 272 300 323 335 327 316 308 303 335 339 346 365 358 338 319 310 234 185 220 190 160 168 168 169 228 185 184 183
123 139 131 150 181 118 169 177 146 119 191 192 122 199 203 162 211 215 226 243 266 323 330 350 334 318 308 325 329 330 354 352 353 318 305 138 191 208 172 173 166 167 168 166 163 185 178
118 151 189 129 175 135 158 124 170 148 140 170 184 177 200 205 164 209 207 225 245 257 339 307 302 300 304 308 307 347 345 363 351 318 308 304 83 200 195 170 167 169 167 165 160 215 224
174 153 121 141 184 183 166 156 183 173 191 117 188 207 213 185 198 171 209 205 226 251 249 334 302 298 302 300 303 297 366 370 355 326 310 301 280 189 212 173 162 168 169 178 171 166 204
169 118 183 170 190 186 157 132 169 185 134 184 131 190 201 191 199 157 169 213 206 223 242 258 318 335 296 317 305 301 311 363 356 357 318 147 290 196 94 181 133 156 163 173 166 154 158
165 160 123 166 134 148 142 183 164 160 179 148 150 187 195 154 200 189 202 181 211 220 218 243 262 281 313 312 302 287 298 349 349 354 317 264 164 205 192 188 122 136 86 107 153 154 154
175 161 173 170 185 178 188 178 172 164 157 181 188 171 155 186 170 210 182 189 179 209 203 214 237 267 264 306 314 304 304 331 340 344 351 309 143 287 160 195 163 180 126 107 150 168 92
176 189 154 161 160 176 142 174 149 145 172 178 177 167 153 157 179 173 166 199 183 190 215 200 209 231 251 255 289 328 322 324 330 342 157 337 234 298 274 123 158 160 166 170 170 168 89
183 163 178 180 171 157 173 171 156 127 184 170 180 180 184 183 153 144 185 196 206 185 194 210 196 209 226 248 267 278 337 350 341 325 243 144 315 277 280 266 145 158 162 164 156 154 158
159 163 161 168 177 170 158 174 168 182 182 174 184 188 191 196 183 186 169 196 201 200 168 207 196 200 200 219 233 232 270 341 354 350 218 225 187 205 138 245 164 160 158 162 170 172 172
156 158 151 155 163 166 176 161 187 141 154 195 189 186 195 194 185 164 148 138 179 196 195 176 170 206 201 194 215 224 244 251 263 268 190 281 206 142 175 201 174 168 162 164 169 165 164
149 153 160 179 159 174 177 168 160 154 139 178 190 163 190 172 170 178 184 196 161 190 196 204 176 166 183 213 196 197 215 222 224 256 243 226 215 217 209 140 185 181 170 160 165 160 163
175 172 164 149 174 176 180 175 177 169 177 185 175 169 190 176 182 173 188 199 191 185 180 175 189 199 168 191 194 189 198 199 204 212 222 182 183 167 177 172 171 172 169 169 172 171 172
171 166 178 172 173 174 175 173 167 161 183 172 172 173 183 172 167 168 166 190 192 188 176 149 179 177 177 197 182 189 193 189 210 198 185 197 200 196 181 178 179 176 176 176 172 175 176
179 177 181 181 144 185 169 175 170 187 166 173 174 170 172 168 186 163 164 162 179 193 160 201 196 146 163 199 199 201 165 179 199 189 189 195 201 210 199 204 205 204 203 196 206 206 205
180 180 179 184 164 162 181 156 182 160 166 170 167 175 140 166 178 185 176 166 172 169 171 186 172 153 174 155 189 197 201 183 154 161 196 206 187 186 190 192 202 198 199 201 194 199 200
178 166 172 167 178 170 170 175 183 170 165 166 164 178 172 165 159 171 162 160 179 177 168 179 166 178 174 195 152 150 181 194 165 196 165 147 167 181 200 198 189 198 194 193 196 194 194
184 196 194 176 168 203 190 178 183 182 166 179 180 188 175 182 167 169 178 181 169 177 181 176 172 151 186 180 176 185 196 157 166 188 197 194 179 192 175 163 198 195 189 186 186 184 182
198 178 203 194 202 178 184 202 199 174 184 183 170 184 176 178 172 184 179 168 175 176 158 179 172 180 155 136 196 190 173 181 180 196 185 176 189 194 186 196 175 195 189 177 156 156 156
196 196 207 207 185 180 205 171 172 170 177 178 175 185 181 184 184 173 175 189 188 160 175 181 167 173 180 166 176 167 180 175 177 181 187 179 173 181 184 198 161 179 200 195 187 193 191
220 215 198 212 215 212 201 194 181 190 198 190 191 172 180 184 179 187 173 167 156 177 185 186 174 179 170 183 163 188 185 155 177 181 176 166 189 178 190 162 191 193 189 185 186 189 185
215 216 205 220 213 210 207 198 203 206 192 180 194 178 182 168 156 175 176 178 163 173 177 181 186 178 190 181 169 166 186 171 177 164 201 195 176 165 183 185 184 190 193 193 196 188 190
218 241 232 216 227 221 217 207 204 204 201 187 181 189 181 179 201 190 182 193 192 206 181 180 189 182 153 173 177 179 186 181 180 187 187 165 177 196 186 184 185 189 179 188 180 185 192

GFSGBSN_2pvu_pres_219.txt.gz
Presure
132 147 148 132 141 126 119 174 149 142 142 126 145 202 199 180 213 202 227 238 368 356 341 328 331 327 314 316 324 330 327 335 233 191 205 211 206 220 177 177 202 170 188 166 99 95 193
123 136 127 177 139 135 147 122 141 140 184 132 127 152 178 213 189 223 201 221 245 357 347 327 328 324 319 319 322 333 336 343 251 227 213 208 210 199 182 206 209 199 157 186 173 180 186
119 127 146 139 136 145 141 157 141 125 129 193 125 142 138 208 142 202 211 234 228 267 352 333 320 310 306 309 310 312 328 348 339 225 231 211 184 216 207 165 178 206 192 182 181 183 182
119 175 166 176 126 139 131 132 147 176 131 188 146 135 128 184 206 200 209 194 215 234 322 346 328 316 305 299 302 306 314 324 349 346 228 218 196 208 200 197 161 197 203 191 181 183 182
170 133 173 179 184 168 191 139 172 177 193 137 172 172 156 133 211 218 204 232 237 220 237 303 324 318 316 313 309 312 317 317 331 365 255 235 225 212 165 223 188 162 167 206 189 177 181
140 171 138 198 195 166 140 117 196 134 156 128 143 188 125 204 124 188 212 219 219 232 225 242 334 327 326 333 341 345 325 336 327 348 374 290 230 228 177 167 173 189 167 125 103 191 175
165 148 124 139 161 120 190 182 173 191 162 132 125 143 177 137 198 212 194 208 211 210 204 224 273 316 310 304 306 314 346 361 353 379 356 397 281 225 236 169 190 150 169 179 158 161 198
127 133 175 166 136 189 192 189 142 183 162 196 131 170 182 190 199 127 162 204 204 208 222 229 227 260 324 316 297 300 337 346 350 351 351 381 306 264 234 211 169 158 157 190 189 213 211
176 174 155 187 141 172 166 174 178 123 168 190 171 199 190 187 193 197 201 156 208 217 198 219 214 230 285 319 303 297 308 341 344 352 370 392 373 268 230 236 207 182 212 210 185 183 183
182 180 152 136 170 174 160 184 143 159 172 168 124 190 145 154 184 190 212 198 154 208 215 207 209 221 234 310 300 301 311 331 339 352 364 366 360 295 245 228 223 182 178 209 172 161 204
138 163 181 170 178 126 148 193 134 170 152 135 171 125 185 182 172 181 174 203 151 187 212 207 215 204 229 237 317 309 332 334 335 338 356 332 346 349 265 245 227 208 174 216 205 203 165
125 159 146 156 160 178 173 172 158 188 146 143 145 156 190 184 191 189 203 194 203 181 204 201 207 224 210 231 317 317 336 346 339 337 340 328 330 328 327 255 239 225 203 169 207 214 201
166 156 170 165 173 176 166 162 152 171 174 145 180 123 172 182 196 195 185 183 194 178 134 186 181 208 211 227 238 334 339 344 342 333 333 323 319 320 315 266 251 238 224 210 169 195 190
168 166 167 179 174 169 160 172 178 175 166 180 183 182 134 175 186 193 187 186 187 189 187 135 175 205 197 195 227 240 341 349 346 330 324 321 314 310 316 317 257 243 233 212 231 175 211
162 166 169 174 176 159 167 174 153 183 177 170 174 183 163 151 186 188 189 181 179 170 175 160 160 192 208 192 209 226 240 337 332 338 327 323 319 320 312 312 267 248 234 219 205 166 196
179 175 172 168 148 145 168 170 159 157 154 173 175 193 170 145 164 173 173 154 181 183 187 189 181 174 198 205 201 214 223 231 334 234 283 335 324 324 322 325 324 254 236 230 118 198 160
174 160 142 151 173 168 176 173 168 187 179 182 167 154 174 170 182 178 170 179 177 182 185 160 182 179 195 176 191 205 188 217 221 231 349 225 335 324 318 316 319 322 254 243 232 214 164
150 169 177 176 179 181 174 176 174 169 183 170 175 186 175 186 191 192 182 173 171 182 165 183 154 189 186 168 177 181 207 198 200 211 211 239 351 337 330 314 311 316 309 308 246 231 224
188 184 172 165 168 183 173 180 180 184 183 164 183 181 189 176 187 183 177 168 177 178 183 183 173 171 160 187 165 183 201 187 188 204 225 211 238 233 285 333 312 308 301 305 308 267 239
187 180 171 179 166 184 186 183 184 184 182 187 194 163 186 180 177 179 173 174 177 181 186 177 184 171 176 180 184 184 173 187 205 203 182 202 202 207 231 199 231 317 307 302 313 311 291
184 187 182 182 184 160 184 184 191 185 183 166 185 177 178 179 177 178 172 168 171 183 183 188 192 185 155 156 166 170 189 192 170 191 206 185 208 185 212 207 208 210 222 237 248 255 253
183 183 200 193 182 203 194 190 193 182 190 180 187 189 172 180 170 179 176 180 163 178 182 179 169 160 179 183 163 182 164 183 185 186 168 202 182 197 197 184 211 202 211 210 205 210 207
130 149 202 201 193 185 184 190 176 191 194 178 190 176 182 180 175 167 181 168 179 182 171 179 173 192 187 175 186 149 173 182 167 181 191 188 189 193 201 181 205 190 209 198 207 193 194
127 126 169 147 204 201 200 191 198 188 185 191 188 193 193 186 208 173 179 187 161 199 190 183 183 184 192 180 191 181 181 156 176 186 176 150 196 186 174 187 206 181 199 203 202 197 182
194 194 187 184 197 194 201 198 202 208 200 194 193 195 199 194 183 191 187 195 185 181 184 180 187 193 194 180 184 193 178 189 188 162 189 177 187 172 183 176 179 168 182 191 199 198 197
227 225 225 221 187 215 205 203 207 203 205 204 203 202 200 193 200 189 187 187 192 192 195 189 189 183 199 196 178 191 190 175 187 181 176 181 179 181 159 175 171 176 179 182 193 188 184
230 235 207 232 225 223 218 207 222 225 216 217 212 207 211 213 213 209 207 205 197 195 196 200 203 210 197 199 182 189 191 179 187 172 183 183 184 182 189 193 188 196 180 176 185 170 185
383 315 299 341 184 249 247 249 243 241 252 290 266 258 261 247 253 244 230 223 216 215 217 214 200 204 212 201 199 182 192 190 189 186 181 151 182 181 193 181 187 187 183 182 171 162 194
162 268 286 236 330 338 335 326 300 338 299 316 278 230 268 274 280 270 252 250 234 220 221 220 218 214 208 208 204 203 199 187 178 183 187 176 191 175 181 194 183 198 187 191 188 183 195

GFSGBSN_2pvu_pres_225.txt.gz
Presure
119 123 123 121 122 138 119 116 185 154 160 146 199 169 170 201 134 179 137 117 120 197 221 234 227 252 269 358 351 344 341 344 348 348 365 264 218 207 214 209 197 182 187 186 195 191 190
121 126 121 127 120 157 131 130 146 133 180 160 189 185 197 124 183 143 147 132 121 173 162 204 234 233 254 280 355 344 340 341 346 342 357 354 240 202 201 196 210 164 190 191 206 189 194
149 125 123 120 128 124 126 168 152 171 139 188 172 191 193 157 159 199 201 212 201 119 199 220 206 231 237 256 348 344 347 337 343 342 342 303 275 231 217 206 198 200 148 169 189 193 185
174 125 122 190 176 144 176 131 131 179 133 159 169 149 169 131 142 184 121 203 215 159 202 226 221 216 226 237 252 270 337 336 343 343 340 252 337 250 210 208 200 197 210 180 159 186 191
128 175 172 138 128 172 180 131 130 184 162 148 143 176 184 186 158 136 142 198 178 204 161 205 194 195 212 221 234 254 333 329 341 338 341 333 246 287 245 219 202 199 197 188 192 190 188
153 129 165 136 177 170 144 184 172 167 181 162 166 154 140 192 158 197 164 196 144 118 201 216 200 175 187 216 223 231 253 346 325 334 331 339 346 246 251 242 191 202 198 193 202 177 172
167 152 144 181 170 149 125 171 158 161 179 176 127 181 185 151 120 150 131 160 192 200 112 199 222 198 205 213 214 226 237 312 345 329 341 333 336 344 356 250 237 196 196 189 185 199 193
155 163 166 167 168 167 150 139 134 158 175 169 174 183 145 172 199 164 151 135 199 162 196 208 200 179 205 215 208 227 220 235 359 343 337 367 324 335 347 298 248 233 200 199 193 189 126
166 151 165 168 137 173 171 179 158 152 159 172 181 160 192 153 150 183 190 182 187 182 209 196 206 191 224 186 211 209 218 223 297 348 346 344 372 334 337 360 257 245 223 201 201 197 189
172 166 160 168 152 153 159 174 180 129 176 156 177 162 188 161 143 154 180 179 182 186 195 183 204 201 183 211 195 211 213 212 239 386 358 353 360 391 336 343 309 253 232 212 206 200 196
167 162 161 177 107 162 161 159 163 173 178 173 181 184 163 171 172 177 189 189 171 193 197 195 210 197 197 202 221 199 211 208 224 231 371 357 364 363 367 335 354 252 239 226 208 199 197
149 148 170 158 163 175 175 171 127 168 176 172 178 177 181 180 175 168 179 181 185 185 194 193 212 195 195 164 181 209 209 215 213 228 241 376 363 369 377 336 339 372 250 235 225 210 201
162 166 170 169 158 153 177 169 140 158 175 178 169 181 167 173 170 176 165 154 185 186 191 190 177 205 193 195 201 197 216 198 213 225 230 260 359 360 374 350 344 393 358 245 233 226 213
172 166 161 173 170 161 139 165 154 180 179 146 152 167 165 171 163 186 183 187 189 184 178 192 192 183 197 200 186 199 203 214 208 215 221 231 258 359 352 361 370 393 356 326 244 240 229
134 173 175 174 169 161 151 174 176 169 157 178 156 175 179 162 183 170 172 174 178 188 176 189 188 181 186 196 189 179 200 203 215 202 212 208 226 253 372 377 378 383 380 363 293 243 214
166 162 165 178 176 168 156 174 147 139 160 167 185 170 164 181 175 168 179 187 185 186 184 193 189 182 176 202 195 187 168 188 208 201 201 205 221 230 252 350 357 358 363 374 360 263 243
176 180 172 174 178 166 161 163 176 167 173 176 159 181 183 193 179 180 187 189 179 180 180 191 187 194 189 179 192 192 194 202 191 210 203 195 213 207 222 240 333 342 344 356 342 332 257
185 174 179 181 190 174 189 182 181 182 187 186 177 187 167 181 185 182 172 189 187 191 181 193 181 191 189 181 182 194 194 185 163 207 205 188 205 208 205 218 232 330 326 339 346 358 325
182 159 173 181 180 173 161 179 191 182 177 170 180 176 177 161 190 186 191 197 194 183 180 185 185 195 187 183 192 189 188 186 185 182 203 181 206 195 209 197 214 222 305 322 324 332 337
195 192 207 200 199 177 179 193 194 196 182 177 180 187 192 192 187 197 188 189 190 190 180 177 188 197 186 190 190 184 185 188 180 205 178 170 190 202 189 207 196 213 215 252 326 324 321
161 198 204 195 195 152 186 187 201 191 191 193 207 198 200 209 206 200 189 179 180 193 179 192 196 196 181 187 187 184 183 196 180 192 178 176 193 190 177 194 190 214 202 208 218 312 324
201 200 206 204 195 192 214 211 214 198 191 192 205 207 170 140 202 185 200 192 202 198 201 190 187 187 193 189 188 184 177 186 178 186 195 171 188 192 186 191 186 191 206 205 203 208 224
198 202 203 203 208 213 211 213 207 211 208 223 134 137 127 149 135 185 183 185 206 203 205 206 188 194 193 188 189 184 191 187 193 182 198 181 186 171 191 180 195 178 201 185 196 200 210
221 219 220 218 217 214 225 227 220 212 213 131 178 126 158 211 208 178 149 203 211 155 195 198 205 210 206 194 201 187 200 205 185 185 190 183 184 190 174 197 197 199 175 193 191 193 203
235 229 196 231 219 232 228 232 233 230 223 126 119 126 214 134 217 220 215 216 219 216 212 211 208 200 199 201 206 208 200 196 187 189 188 194 194 195 193 186 179 198 193 199 182 192 182
273 278 282 272 280 289 293 258 255 302 311 320 330 261 253 236 232 229 229 229 226 202 223 225 211 212 213 207 203 197 201 186 197 192 193 202 192 185 189 196 196 185 184 187 208 191 190
261 262 267 182 278 376 410 367 214 361 342 307 319 254 255 293 297 302 312 308 291 290 253 226 229 224 221 218 212 201 199 199 199 191 194 195 200 199 199 200 205 185 192 172 178 182 191
250 263 239 243 279 275 346 460 455 458 151 359 476 215 304 174 375 276 327 279 230 269 251 292 283 263 260 263 251 235 229 224 221 211 208 206 204 210 208 210 209 201 201 186 190 197 199
305 374 326 374 431 441 426 411 407 406 402 413 437 457 490 446 380 379 344 291 348 296 301 320 238 295 230 217 240 260 253 247 235 222 221 212 213 210 207 210 207 202 210 197 197 200 198